Weather reports worldwide

Advertisment
Cabo Busto, Spain (8010): temperature & dewpoint: 13.03.2019 09:00:00 - 19.03.2019 09:00:00 (CET)Cabo Busto, Spain (8010): wind speed & gusts: 13.03.2019 09:00:00 - 19.03.2019 09:00:00 (CET)Cabo Busto, Spain (8010): wind direction: 13.03.2019 09:00:00 - 19.03.2019 09:00:00 (CET)Cabo Busto, Spain (8010): reduced air pressure: 13.03.2019 09:00:00 - 19.03.2019 09:00:00 (CET)Cabo Busto, Spain (8010): visibility: 13.03.2019 09:00:00 - 19.03.2019 09:00:00 (CET)Cabo Busto, Spain (8010): sunshine duration: 13.03.2019 09:00:00 - 19.03.2019 09:00:00 (CET)Cabo Busto, Spain (8010): precipitation: 13.03.2019 09:00:00 - 19.03.2019 09:00:00 (CET)
Date & Time tt [°C] td [°C] ff [km/h] ff [kn] fx [km/h] fx [kn] dd ppp [hPa] vv [km] sd [min] rr [mm]
19.03.2019 09:00:00 8,6 6,2 14 8 19 11 SSE 1030,6 20 0 0,0
19.03.2019 08:00:00 8,2 5,6 12 7 20 11 SE 1030,0 20 0 0,0
19.03.2019 07:00:00 7,9 5,3 15 8 22 12 SSE 1029,7 20 0 -
19.03.2019 06:00:00 8,0 5,1 13 7 19 10 SSE 1029,7 20 0 0,0
19.03.2019 05:00:00 7,9 5,0 11 6 18 10 SSE 1029,6 20 0 0,4
19.03.2019 04:00:00 7,8 4,8 14 7 17 9 SSE 1029,7 18 0 0,0
19.03.2019 03:00:00 7,8 4,8 13 7 18 10 SSE 1030,3 20 0 0,0
19.03.2019 02:00:00 7,6 4,5 14 8 18 10 SSE 1030,6 20 0 0,0
19.03.2019 01:00:00 7,7 4,6 13 7 18 10 SSE 1030,8 20 0 -
19.03.2019 00:00:00 7,8 4,8 14 8 18 10 SSE 1030,8 20 0 0,0
18.03.2019 23:00:00 7,7 4,6 14 8 16 9 SSE 1031,3 20 0 0,0
18.03.2019 22:00:00 8,1 4,6 10 6 14 8 SSE 1031,2 20 0 0,0
18.03.2019 21:00:00 8,5 3,9 6 4 11 6 SSE 1030,8 20 0 0,0
18.03.2019 20:00:00 10,6 4,6 3 2 17 9 W 1030,6 14 0 0,0
18.03.2019 19:00:00 11,8 5,0 5 3 17 9 WNW 1030,4 14 54 -
18.03.2019 18:00:00 12,5 5,6 7 4 17 9 NW 1029,9 19 60 0,0
18.03.2019 17:00:00 12,1 5,5 9 5 19 10 NW 1029,6 16 58 0,0
18.03.2019 16:00:00 12,8 6,4 10 6 19 10 NW 1029,8 14 60 0,0
18.03.2019 15:00:00 12,9 7,1 8 4 17 9 WNW 1030,0 14 60 0,0
18.03.2019 14:00:00 12,6 6,4 11 6 - - NW 1030,4 9 60 0,0
18.03.2019 13:00:00 12,4 5,8 - - - - - 1030,6 14 60 -
18.03.2019 12:00:00 12,7 7,0 - - - - - 1030,8 4,2 60 0,0
18.03.2019 11:00:00 10,0 6,1 12 7 24 13 SSE 1031,1 20 37 0,0
18.03.2019 10:00:00 7,3 4,1 17 9 26 14 SSE 1030,5 20 14 0,0
18.03.2019 09:00:00 5,8 3,0 20 11 27 15 SSE 1029,8 20 3 0,0
18.03.2019 08:00:00 5,0 2,5 21 11 25 13 SSE 1029,2 20 0 0,2
18.03.2019 07:00:00 5,5 2,9 18 10 27 15 SSE 1029,0 20 0 -
18.03.2019 06:00:00 5,6 2,9 21 11 27 15 SSE 1028,5 20 0 0,4
18.03.2019 05:00:00 4,9 2,1 18 10 23 12 S 1028,5 20 0 0,0
18.03.2019 04:00:00 5,1 2,3 19 11 24 13 SSE 1028,3 20 0 0,0
18.03.2019 03:00:00 5,3 2,5 20 11 24 13 SSE 1028,3 20 0 0,0
18.03.2019 02:00:00 5,4 2,5 18 10 22 12 SSE 1028,4 20 0 0,0
18.03.2019 01:00:00 6,1 3,0 17 9 24 13 SSE 1028,7 20 0 -
18.03.2019 00:00:00 6,2 2,9 17 9 22 12 SSE 1028,7 20 0 0,0
17.03.2019 23:00:00 7,3 3,2 14 7 18 10 SSE 1028,8 18 0 0,0
17.03.2019 22:00:00 9,0 2,5 8 4 22 12 S 1028,4 20 0 0,0
17.03.2019 21:00:00 10,2 3,0 15 8 - - NW 1027,9 15 0 0,0
17.03.2019 20:00:00 10,2 3,2 8 4 24 13 NNW 1027,3 14 4 0,0
17.03.2019 19:00:00 11,0 1,7 21 11 29 16 NW 1026,8 20 41 -
17.03.2019 18:00:00 11,1 2,5 16 9 27 15 W 1026,2 13 53 0,0
17.03.2019 17:00:00 12,1 2,3 21 12 29 16 NW 1025,9 20 43 0,0
17.03.2019 16:00:00 11,2 3,4 22 12 28 15 NW 1025,7 20 47 0,0
17.03.2019 15:00:00 12,5 5,0 21 11 31 17 WNW 1025,5 7 60 0,0
17.03.2019 14:00:00 11,6 4,3 25 13 35 19 NW 1025,3 19 42 0,0
17.03.2019 13:00:00 11,5 4,6 24 13 41 22 WNW 1025,0 20 34 -
17.03.2019 12:00:00 10,8 5,0 29 16 38 21 W 1024,2 9 14 0,2
17.03.2019 11:00:00 9,4 7,7 12 6 21 11 SSW 1023,8 8 0 1,0
17.03.2019 10:00:00 9,1 7,4 18 10 31 17 W 1023,2 11 0 0,2
17.03.2019 09:00:00 9,3 7,8 16 8 40 22 W 1022,2 7 0 0,6
17.03.2019 08:00:00 9,1 7,7 22 12 38 21 W 1020,9 8 0 0,8
17.03.2019 07:00:00 9,1 7,7 36 19 74 40 WNW 1019,9 3,2 0 -
17.03.2019 06:00:00 11,0 7,7 32 18 61 33 W 1018,2 11 0 0,0
17.03.2019 05:00:00 12,2 6,1 38 21 61 33 WSW 1016,4 19 0 0,0
17.03.2019 04:00:00 12,8 4,5 23 12 76 41 SW 1015,8 18 0 0,0
17.03.2019 03:00:00 12,8 3,9 48 26 79 43 WSW 1015,2 19 0 0,0
17.03.2019 02:00:00 11,7 4,1 55 30 78 42 W 1015,5 20 0 0,0
17.03.2019 01:00:00 10,5 5,6 49 27 81 44 W 1015,6 18 0 -
17.03.2019 00:00:00 10,2 6,4 35 19 - - W 1016,1 13 0 0,0
16.03.2019 23:00:00 9,3 6,5 7 4 17 9 SSW 1016,5 6 0 0,0
16.03.2019 22:00:00 10,4 7,3 13 7 19 10 SE 1016,6 20 0 0,0
16.03.2019 21:00:00 10,9 7,7 10 5 16 9 SE 1016,5 14 0 0,0
16.03.2019 20:00:00 11,5 8,4 6 3 - - SE 1016,7 15 0 0,0
16.03.2019 19:00:00 11,5 8,1 13 7 28 15 WNW 1016,8 13 0 -
16.03.2019 18:00:00 12,0 8,3 12 7 22 12 W 1016,8 8 0 0,0
16.03.2019 17:00:00 12,4 8,5 9 5 22 12 W 1016,8 9 0 0,0
16.03.2019 16:00:00 12,1 8,4 14 8 23 12 W 1016,9 8 0 0,0
16.03.2019 15:00:00 13,6 9,0 13 7 28 15 W 1017,3 6 4 0,0
16.03.2019 14:00:00 13,0 8,5 14 8 29 16 W 1018,2 7 16 0,0
16.03.2019 13:00:00 14,3 9,6 15 8 27 15 W 1018,7 8 60 -
16.03.2019 12:00:00 14,3 9,6 10 6 - - W 1019,0 6 60 0,0
16.03.2019 11:00:00 12,7 8,1 - - - - - 1019,6 7 60 0,0
16.03.2019 10:00:00 10,7 7,0 - - - - - 1020,3 6 60 0,0
16.03.2019 09:00:00 8,3 5,8 - - - - - 1020,0 18 57 0,0
16.03.2019 08:00:00 4,0 1,3 14 8 18 10 S 1020,0 20 0 0,0
16.03.2019 07:00:00 4,6 1,9 11 6 19 10 SSW 1020,5 20 0 -
16.03.2019 06:00:00 4,4 1,7 14 8 20 11 SSE 1020,8 20 0 0,0
16.03.2019 05:00:00 5,2 2,9 16 9 24 13 SSE 1021,1 20 0 0,0
16.03.2019 04:00:00 5,3 3,2 17 9 22 12 SSE 1022,0 20 0 0,0
16.03.2019 03:00:00 5,6 3,8 15 8 19 10 SSE 1023,6 20 0 0,0
16.03.2019 02:00:00 5,5 3,4 15 8 20 11 SSE 1024,4 20 0 0,0
16.03.2019 01:00:00 6,7 4,3 14 7 19 11 SSE 1025,0 20 0 -
16.03.2019 00:00:00 7,2 4,8 14 8 21 11 SE 1025,6 20 0 0,0
15.03.2019 23:00:00 7,8 5,1 14 8 18 10 SE 1026,2 20 0 0,0
15.03.2019 22:00:00 8,3 5,5 10 6 16 9 SE 1026,4 20 0 0,0
15.03.2019 21:00:00 8,5 5,3 11 6 14 7 SSE 1026,8 20 0 0,0
15.03.2019 20:00:00 10,6 5,8 2 1 9 5 SE 1027,2 6 6 0,0
15.03.2019 19:00:00 12,5 6,2 6 3 14 7 NW 1027,5 15 60 -
15.03.2019 18:00:00 13,3 7,1 12 6 18 10 WNW 1027,7 9 60 0,0
15.03.2019 17:00:00 13,3 7,3 13 7 20 11 WNW 1028,0 8 60 0,0
15.03.2019 16:00:00 14,3 8,0 15 8 25 14 W 1028,2 5 60 0,0
15.03.2019 15:00:00 13,7 7,3 19 10 24 13 W 1028,4 11 60 0,0
15.03.2019 14:00:00 14,5 8,7 14 7 21 11 W 1028,9 7 60 0,0
15.03.2019 13:00:00 13,3 7,1 15 8 29 16 W 1029,4 4,7 60 -
15.03.2019 12:00:00 15,1 7,6 9 5 22 12 W 1029,9 8 60 0,0
15.03.2019 11:00:00 13,1 6,7 15 8 21 12 W 1030,1 9 60 0,0
15.03.2019 10:00:00 9,8 4,6 12 7 20 11 S 1030,2 20 36 0,0
15.03.2019 09:00:00 7,8 3,2 16 9 23 12 S 1030,2 20 1 0,0
15.03.2019 08:00:00 6,9 2,9 18 10 23 13 S 1030,1 20 0 0,0
15.03.2019 07:00:00 8,2 2,9 15 8 24 13 S 1029,8 20 0 -
15.03.2019 06:00:00 10,9 4,1 14 8 28 15 WSW 1029,8 11 0 0,0
15.03.2019 05:00:00 11,2 4,1 21 11 29 16 WSW 1029,8 20 0 0,0
15.03.2019 04:00:00 11,4 4,8 21 11 28 15 W 1030,1 16 0 0,0
15.03.2019 03:00:00 11,5 4,6 19 10 24 13 WSW 1030,7 16 0 0,0
15.03.2019 02:00:00 11,7 5,8 15 8 29 16 W 1031,1 7 0 0,0
15.03.2019 01:00:00 11,6 5,3 10 6 24 13 SW 1031,5 7 0 -
15.03.2019 00:00:00 11,6 5,6 18 10 24 13 W 1031,9 8 0 0,0
14.03.2019 23:00:00 11,7 5,8 8 5 19 11 WSW 1032,0 3,1 0 0,0
14.03.2019 22:00:00 11,7 7,3 13 7 20 11 W 1031,8 7 0 0,0
14.03.2019 21:00:00 11,7 7,4 19 10 24 13 W 1031,6 8 0 0,0
14.03.2019 20:00:00 11,8 7,1 9 5 23 12 W 1031,6 7 0 0,0
14.03.2019 19:00:00 11,9 6,5 17 9 25 13 W 1031,3 10 1 -
14.03.2019 18:00:00 12,3 6,5 14 7 30 16 W 1031,3 13 0 0,0
14.03.2019 17:00:00 13,0 6,8 14 8 35 19 W 1031,5 9 47 0,0
14.03.2019 16:00:00 13,7 6,5 18 10 42 23 W 1031,5 12 28 0,0
14.03.2019 15:00:00 13,0 5,6 24 13 44 24 W 1031,7 19 15 0,0
14.03.2019 14:00:00 11,8 4,8 23 13 49 26 WNW 1032,5 14 0 0,0
14.03.2019 13:00:00 11,6 4,8 28 15 49 26 W 1032,7 12 0 -
14.03.2019 12:00:00 11,1 3,8 35 19 46 25 W 1033,2 15 0 0,0
14.03.2019 11:00:00 10,8 3,9 27 15 40 21 WSW 1033,3 9 0 0,0
14.03.2019 10:00:00 10,3 3,6 31 17 39 21 WSW 1033,4 11 0 0,0
14.03.2019 09:00:00 9,9 3,4 23 13 35 19 W 1032,9 10 0 0,0
14.03.2019 08:00:00 9,7 3,6 16 9 31 17 WSW 1032,7 5 0 0,0
14.03.2019 07:00:00 9,6 3,9 16 9 30 16 WSW 1032,7 6 0 -
14.03.2019 06:00:00 9,8 4,8 18 10 27 14 WSW 1033,1 4,0 0 0,0
14.03.2019 05:00:00 9,9 5,1 16 9 29 16 WSW 1033,4 4,9 0 0,0
14.03.2019 04:00:00 9,9 5,5 17 9 29 15 W 1033,8 4,6 0 0,0
14.03.2019 03:00:00 9,8 5,6 14 8 26 14 WSW 1034,5 4,2 0 0,0
14.03.2019 02:00:00 9,8 5,9 18 10 27 14 W 1034,6 4,5 0 0,0
14.03.2019 01:00:00 9,5 6,2 16 9 23 12 W 1034,6 4,7 0 -
14.03.2019 00:00:00 9,4 6,2 16 9 28 15 WSW 1035,0 4,2 0 0,2
13.03.2019 23:00:00 9,5 6,1 12 6 32 18 WSW 1034,9 4,6 0 0,0
13.03.2019 22:00:00 9,3 6,7 27 15 45 24 W 1034,4 5 0 0,0
13.03.2019 21:00:00 10,2 5,9 16 9 31 17 W 1034,5 6 0 0,0
13.03.2019 20:00:00 10,6 6,1 14 8 35 19 W 1034,3 6 0 0,0
13.03.2019 19:00:00 10,6 5,8 22 12 36 20 W 1033,8 4,5 18 -
13.03.2019 18:00:00 11,4 6,5 26 14 46 25 W 1033,4 4,5 40 0,4
13.03.2019 17:00:00 11,1 6,4 30 16 42 23 WNW 1033,4 9 55 0,0
13.03.2019 16:00:00 11,6 6,1 29 16 49 26 W 1032,9 4,3 41 0,0
13.03.2019 15:00:00 - - - - - - - - - - -
13.03.2019 14:00:00 13,0 6,4 26 14 41 22 W 1033,1 7 43 0,0
13.03.2019 13:00:00 12,9 7,3 18 10 39 21 W 1033,0 7 31 -
13.03.2019 12:00:00 10,2 6,4 30 16 46 25 W 1032,8 7 29 0,0
13.03.2019 11:00:00 11,3 6,4 - - - - - 1031,9 12 55 0,0
13.03.2019 10:00:00 9,4 5,9 39 21 - - W 1031,3 15 2 0,0
13.03.2019 09:00:00 8,9 5,3 34 18 - - W 1030,7 12 0 0,2

tt = temperature
td = dewpoint
ff = wind speed
fx = gusts
dd = wind direction
ppp = reduced air pressure
vv = visibility
sd = sunshine duration
rr = precipitation

Next stations